Flag for China Weather past 2 weeks in Shenzhen, Guangdong, China

Now
66 °F

Sunny.


Feels Like: 66 °F
Forecast: 53 / 71 °F
Wind: 8 mph from Southwest

Location: Shenzhen Airport

Current Time: Jan 29, 2015 at 1:02:56 PM

Latest Report: Jan 29, 2015 at 12:00 PM


Visibility: 10 mi

Pressure: 30.12 "Hg

Humidity: 64%

Dew point: 54 °F

Location of ShenzhenLocation

Historic Weather in Shenzhen — Graph

°F

Shenzhen temperature yesterday

Maximum temperature yesterday: 70 °F (at 12:00 PM)
Minimum temperature yesterday: 61 °F (at 5:00 AM)
Average temperature yesterday: 64 °F

Past Weeks' High & Low Weather Summary

 TemperatureHumidityPressure
High72 °F (Jan 22, 12:00 PM)94% (Jan 26, 4:00 AM)30.33 "Hg (Jan 26, 4:00 AM)
Low48 °F (Jan 15, 7:00 AM)22% (Jan 22, 1:00 PM)29.98 "Hg (Jan 27, 4:00 PM)
Average62 °F64%30.14 "Hg
* Reported Jan 14 12:00 Noon — Jan 29 12:00 Noon, Shenzhen, Weather by CustomWeather, © 2014

Note: Actual official high and low records may vary slightly from our data, if they occured in-between our weather recording intervals... More about our weather records

Advertising

Shenzhen weather history for previous 24 hours

 ConditionsComfort  
Time TempWeatherWind HumidityBarometerVisibility
12:00 PM
Jan 29
66 °FSunny.8 mph64%30.12 "Hg10 mi
11:00 AM66 °FClear.6 mph64%30.12 "Hg5 mi
10:00 AM66 °FClear.1 mph60%30.15 "Hg4 mi
9:00 AM63 °FClear.6 mph68%30.12 "Hg4 mi
8:00 AM59 °FPassing clouds.3 mph77%30.12 "Hg5 mi
7:00 AM59 °FPassing clouds.1 mph72%30.09 "Hg5 mi
6:00 AM59 °FPassing clouds.3 mph72%30.09 "HgN/A
5:00 AM61 °FPassing clouds.6 mph68%30.07 "HgN/A
4:00 AM61 °FPassing clouds.8 mph72%30.07 "HgN/A
3:00 AM61 °FPassing clouds.8 mph72%30.07 "HgN/A
2:00 AM61 °FPassing clouds.10 mph72%30.07 "HgN/A
1:00 AM61 °FPassing clouds.13 mph72%30.09 "HgN/A
12:00 AM61 °FPassing clouds.13 mph72%30.09 "HgN/A
11:00 PM
Jan 28
61 °FPassing clouds.13 mph72%30.09 "HgN/A
10:00 PM61 °FPassing clouds.15 mph72%30.09 "HgN/A
9:00 PM61 °FPassing clouds.17 mph72%30.09 "HgN/A
8:00 PM63 °FPassing clouds.13 mph68%30.07 "HgN/A
7:00 PM63 °FPassing clouds.13 mph68%30.04 "HgN/A
6:00 PM64 °FPartly sunny.13 mph64%30.04 "HgN/A
5:00 PM66 °FPartly sunny.10 mph60%30.01 "HgN/A
4:00 PM68 °FPartly sunny.8 mph60%30.01 "HgN/A
3:00 PM66 °FScattered clouds.8 mph68%30.01 "Hg5 mi
2:00 PM68 °FPassing clouds.8 mph64%30.04 "HgN/A
1:00 PM70 °FPassing clouds.8 mph53%30.04 "HgN/A
Weather by CustomWeather, © 2014

See weather overviewHow to use our weather pages